• MPC Preparation (Info)

  • MPEC 2014-A85 : 2014 AT51

    The following Minor Planet Electronic Circular may be linked-to from your own Web pages, but must not otherwise be redistributed electronically.

    A form allowing access to any MPEC is at the bottom of this page.


    Read MPEC 2014-A84 Read MPEC 2014-A86


    M.P.E.C. 2014-A85                                Issued 2014 Jan. 14, 20:06 UT
    
         The Minor Planet Electronic Circulars contain information on unusual
             minor planets and routine data on comets.  They are published
       on behalf of Commission 20 of the International Astronomical Union by the
              Minor Planet Center, Smithsonian Astrophysical Observatory,
                              Cambridge, MA 02138, U.S.A.
    
                 Prepared using the Tamkin Foundation Computer Network
    
                                  MPC@CFA.HARVARD.EDU
                URL https://www.minorplanetcenter.net/    ISSN 1523-6714
    
                                       2014 AT51
    
    Observations:
         K14A51T* C2014 01 13.43580 10 28 22.90 -21 51 18.2          18.7 VqEA085703
         K14A51T  C2014 01 13.44191 10 28 13.85 -21 49 42.2          18.8 VqEA085703
         K14A51T  C2014 01 13.45408 10 27 55.85 -21 46 32.0          18.3 VqEA085703
         K14A51T  C2014 01 13.46130 10 27 45.31 -21 44 38.9          18.6 VqEA085703
         K14A51T  C2014 01 13.46169 10 27 44.69 -21 44 32.6                qEA085703
         K14A51T  C2014 01 13.49636 10 26 54.12 -21 35 28.4          18.2 VqEA085G96
         K14A51T  C2014 01 13.49687 10 26 53.38 -21 35 20.1          18.3 VqEA085G96
         K14A51T  C2014 01 13.49790 10 26 51.88 -21 35 04.2          18.5 VqEA085G96
         K14A51T KC2014 01 14.08440510 14 04.73 -19 06 10.3          18.0 VqEA085K93
         K14A51T IC2014 01 14.08668910 14 01.80 -19 05 37.2          18.0 VqEA085K93
         K14A51T KC2014 01 14.08897410 13 58.88 -19 05 03.8          18.1 VqEA085K93
         K14A51T KC2014 01 14.09126010 13 55.97 -19 04 30.9          18.1 VqEA085K93
         K14A51T IC2014 01 14.09354510 13 53.05 -19 03 57.8                qEA085K93
         K14A51T  C2014 01 14.39176 10 08 02.76 -17 56 10.4          17.4 VqEA085703
         K14A51T  C2014 01 14.39510 10 07 58.83 -17 55 24.5          17.6 VqEA085703
         K14A51T  C2014 01 14.39675 10 07 56.82 -17 55 01.4          17.9 VqEA085703
         K14A51T  C2014 01 14.41986 10 07 29.29 -17 49 42.3          18.2 RoEA085926
         K14A51T  C2014 01 14.42153 10 07 27.31 -17 49 19.6          18.3 RoEA085926
         K14A51T  C2014 01 14.42318 10 07 25.32 -17 48 56.7          18.2 RoEA085926
         K14A51T KC2014 01 14.66554 10 02 57.75 -16 52 07.4          18.0 VqEA085E23
         K14A51T KC2014 01 14.67388 10 02 48.32 -16 50 17.1          17.9 VqEA085E23
         K14A51T KC2014 01 14.68221 10 02 38.96 -16 48 26.9          17.7 VqEA085E23
         K14A51T KC2014 01 14.69137 10 02 28.68 -16 46 25.6          17.9 VqEA085E23
         K14A51T KC2014 01 14.69971 10 02 19.31 -16 44 35.5          18.1 VqEA085E23
         K14A51T KC2014 01 14.71352810 02 04.08 -16 41 38.0          18.2 VqEA085Q63
         K14A51T KC2014 01 14.71569910 02 01.65 -16 41 09.4          18.1 VqEA085Q63
         K14A51T KC2014 01 14.71784710 01 59.25 -16 40 41.0          18.0 VqEA085Q63
         K14A51T KC2014 01 14.71999910 01 56.85 -16 40 12.6          18.0 VqEA085Q63
         K14A51T KC2014 01 14.72216610 01 54.44 -16 39 44.1          18.0 VqEA085Q63
         K14A51T KC2014 01 14.72433810 01 52.01 -16 39 15.4          18.1 VqEA085Q63
         K14A51T KC2014 01 14.72648910 01 49.61 -16 38 47.0          18.0 VqEA085Q63
    
    Observer details:
    703 Catalina Sky Survey.  Observer A. R. Gibbs.  Measurers A. Boattini,
        E. J. Christensen, A. R. Gibbs, A. D. Grauer, R. E. Hill, J. A. Johnson,
        R. A. Kowalski, S. M. Larson, F. C. Shelly.  0.68-m Schmidt + CCD.
    926 Tenagra II Observatory.  Observers M. Schwartz, P. R. Holvorcem.  0.81-m
        f/7 Ritchey-Chretien + CCD.
    E23 Arcadia.  Observer A. Hidas.  0.35-m Schmidt-Cassegrain + CCD.
    G96 Mt. Lemmon Survey.  Observer J. A. Johnson.  Measurers A. Boattini,
        E. J. Christensen, A. R. Gibbs, A. D. Grauer, R. E. Hill, J. A. Johnson,
        R. A. Kowalski, S. M. Larson, F. C. Shelly.  1.5-m reflector + CCD.
    K93 Sutherland-LCOGT C.  Observers E. J. Christensen, S. M. Larson, T. Lister.
        Measurer T. Lister.  1.0-m f/8 Ritchey-Chretien + CCD.
    Q63 Siding Spring-LCOGT A.  Observers E. J. Christensen, S. M. Larson,
        T. Lister.  Measurer T. Lister.  1.0-m f/8 Ritchey-Chretien + CCD.
    
    Orbital elements:
    2014 AT51                                                Earth MOID = 0.0258 AU
    Epoch 2013 Nov. 4.0 TT = JDT 2456600.5                  MPC
    M 350.79255              (2000.0)            P               Q
    n   0.50248106     Peri.  129.15595     +0.87796402     -0.47634103
    a   1.5669540      Node   259.33849     +0.42288001     +0.81841451
    e   0.5764515      Incl.    2.78401     +0.22439177     +0.32139838
    P   1.96           H   22.2           G   0.15           U   7
    Residuals in seconds of arc
    140113 703  0.6+  0.2+    140114 K93  0.0   0.1+    140114 E23  0.2+  0.1-
    140113 703  0.2+  0.3+    140114 K93  0.0   0.2+    140114 E23  0.0   0.2-
    140113 703  0.8-  0.4-    140114 703  0.6-  0.3+    140114 Q63  0.1-  0.1+
    140113 703  0.1+  0.6-    140114 703  0.4+  0.1+    140114 Q63  0.1-  0.1+
    140113 703  0.6-  0.4-    140114 703  0.1-  0.5+    140114 Q63  0.1-  0.1+
    140113 G96  0.1+  0.0     140114 926  0.3+  0.1-    140114 Q63  0.1-  0.1+
    140113 G96  0.1+  0.3+    140114 926  0.4+  0.4-    140114 Q63  0.1+  0.0
    140113 G96  0.0   0.1+    140114 926  0.1+  0.2-    140114 Q63  0.1-  0.1+
    140114 K93  0.1+  0.2-    140114 E23  0.0   0.3-    140114 Q63  0.1-  0.1+
    140114 K93  0.1-  0.1-    140114 E23  0.4-  0.4-
    140114 K93  0.1-  0.3+    140114 E23  0.1-  0.3-
    
    Ephemeris:
    2014 AT51                a,e,i = 1.57, 0.58, 3                   q = 0.6637
    Date    TT    R. A. (2000) Decl.     Delta      r     Elong.  Phase     V
    2013 12 15    19 00 23.3 -22 14 15   0.2532  0.7533    21.0   152.1    27.5
    ...
    2013 12 30    18 07 43.6 -31 08 48   0.1073  0.8780    10.1   168.6    32.7
    ...
    2014 01 07    15 03 50.9 -43 12 08   0.05415 0.9530    54.6   122.7    20.8
    ...
    2014 01 13    10 39 15.2 -23 46 07   0.05781 1.0108   116.6    60.4    18.2
    2014 01 14    10 15 51.8 -19 27 17   0.06294 1.0204   124.4    52.7    18.2
    2014 01 15    09 57 09.0 -15 40 52   0.06886 1.0301   131.0    46.1    18.2
    ...
    2014 01 21    08 56 52.3 -02 02 18   0.1135  1.0883   155.3    22.2    18.7
    ...
    2014 01 29    08 27 07.5 +05 17 06   0.1845  1.1652   166.5    11.4    19.6
    ...
    2014 02 13    08 10 08.8 +10 36 08   0.3388  1.3052   156.6    17.5    21.3
    
    2014 AT51                a,e,i = 1.57, 0.58, 3                   q = 0.6637
    Date    TT    R. A. (2000) Decl.     Delta      r     Elong.  Phase     V
    2013 12 15    19 00 23.3 -22 14 15   0.2532  0.7533    21.0   152.1    27.5
    ...
    2013 12 30    18 07 43.6 -31 08 48   0.1073  0.8780    10.1   168.6    32.7
    ...
    2014 01 07    15 03 50.9 -43 12 08   0.05415 0.9530    54.6   122.7    20.8
    ...
    2014 01 13    10 39 15.2 -23 46 07   0.05781 1.0108   116.6    60.4    18.2
    2014 01 14    10 15 51.8 -19 27 17   0.06294 1.0204   124.4    52.7    18.2
    2014 01 15    09 57 09.0 -15 40 52   0.06886 1.0301   131.0    46.1    18.2
    ...
    2014 01 21    08 56 52.3 -02 02 18   0.1135  1.0883   155.3    22.2    18.7
    ...
    2014 01 29    08 27 07.5 +05 17 06   0.1845  1.1652   166.5    11.4    19.6
    ...
    2014 02 13    08 10 08.8 +10 36 08   0.3388  1.3052   156.6    17.5    21.3
    
    A. U. Tomatic                (C) Copyright 2014 MPC           M.P.E.C. 2014-A85
    

    Read MPEC 2014-A84 Read MPEC 2014-A86


    MPEC number:

    Enter an MPEC number in one of the following forms:

    • 1997-B01 (the full form)
    • J97B01 (the packed version of the full form)
    • B01 (the abbreviated form)